Time,TemperatureF,DewpointF,PressureIn,WindDirection,WindDirectionDegrees,WindSpeedMPH,WindSpeedGustMPH,Humidity,HourlyPrecipIn,Conditions,Clouds,dailyrainin,SoftwareType,DateUTC
2013-01-03 00:25:00,67.5,67.0,30.06,NE,34,4.0,6.0,99,0.00,,,0.00,weatherlink.com 1.10,2013-01-03 05:25:00,
2013-01-03 00:40:00,67.0,67.0,30.06,North,351,3.0,5.0,99,0.00,,,0.00,weatherlink.com 1.10,2013-01-03 05:40:00,
2013-01-03 00:55:00,67.0,67.0,30.06,NNW,347,4.0,6.0,99,0.00,,,0.00,weatherlink.com 1.10,2013-01-03 05:55:00,
2013-01-03 01:10:00,66.5,66.0,30.05,NNW,343,4.0,5.0,99,0.00,,,0.00,weatherlink.com 1.10,2013-01-03 06:10:00,
2013-01-03 01:25:00,66.5,66.0,30.05,North,5,1.0,2.0,99,0.00,,,0.00,weatherlink.com 1.10,2013-01-03 06:25:00,
2013-01-03 01:40:00,66.8,67.0,30.05,NE,36,2.0,4.0,99,0.00,,,0.00,weatherlink.com 1.10,2013-01-03 06:40:00,
2013-01-03 01:55:00,66.8,67.0,30.05,NE,36,2.0,3.0,99,0.00,,,0.00,weatherlink.com 1.10,2013-01-03 06:55:00,
2013-01-03 02:10:00,66.2,66.0,30.05,NE,36,3.0,3.0,99,0.00,,,0.00,weatherlink.com 1.10,2013-01-03 07:10:00,
2013-01-03 02:25:00,65.8,66.0,30.05,North,355,3.0,3.0,99,0.00,,,0.00,weatherlink.com 1.10,2013-01-03 07:25:00,
2013-01-03 02:40:00,65.8,66.0,30.05,North,5,1.0,4.0,99,0.00,,,0.00,weatherlink.com 1.10,2013-01-03 07:40:00,
2013-01-03 02:55:00,65.4,65.0,30.05,North,5,1.0,2.0,99,0.00,,,0.00,weatherlink.com 1.10,2013-01-03 07:55:00,
2013-01-03 03:10:00,65.6,65.0,30.05,SW,218,3.0,4.0,99,0.00,,,0.00,weatherlink.com 1.10,2013-01-03 08:10:00,
2013-01-03 03:25:00,65.4,65.0,30.05,SW,218,3.0,3.0,99,0.00,,,0.00,weatherlink.com 1.10,2013-01-03 08:25:00,
2013-01-03 03:40:00,65.2,65.0,30.05,SSW,212,0.0,3.0,100,0.00,,,0.00,weatherlink.com 1.10,2013-01-03 08:40:00,
2013-01-03 03:55:00,64.9,65.0,30.05,SSW,212,1.0,2.0,99,0.00,,,0.00,weatherlink.com 1.10,2013-01-03 08:55:00,
2013-01-03 04:10:00,64.6,65.0,30.04,SSW,212,0.0,2.0,100,0.00,,,0.00,weatherlink.com 1.10,2013-01-03 09:10:00,
2013-01-03 04:25:00,64.4,64.0,30.04,SSW,212,1.0,3.0,100,0.00,,,0.00,weatherlink.com 1.10,2013-01-03 09:25:00,
2013-01-03 04:40:00,64.1,64.0,30.03,SSW,212,0.0,3.0,100,0.00,,,0.00,weatherlink.com 1.10,2013-01-03 09:40:00,
2013-01-03 04:55:00,64.2,64.0,30.03,SSW,211,0.0,2.0,100,0.00,,,0.00,weatherlink.com 1.10,2013-01-03 09:55:00,
2013-01-03 05:10:00,63.8,64.0,30.04,SE,142,1.0,4.0,100,0.00,,,0.00,weatherlink.com 1.10,2013-01-03 10:10:00,
2013-01-03 05:25:00,63.2,63.0,30.04,SE,142,1.0,2.0,100,0.00,,,0.00,weatherlink.com 1.10,2013-01-03 10:25:00,
2013-01-03 05:40:00,63.1,63.0,30.05,SE,142,1.0,1.0,100,0.00,,,0.00,weatherlink.com 1.10,2013-01-03 10:40:00,
2013-01-03 05:55:00,63.1,63.0,30.05,SE,142,1.0,2.0,100,0.00,,,0.00,weatherlink.com 1.10,2013-01-03 10:55:00,
2013-01-03 06:10:00,63.1,63.0,30.05,SSW,198,3.0,4.0,100,0.00,,,0.00,weatherlink.com 1.10,2013-01-03 11:10:00,
2013-01-03 06:25:00,62.5,63.0,30.06,SSW,198,2.0,3.0,100,0.00,,,0.00,weatherlink.com 1.10,2013-01-03 11:25:00,
2013-01-03 06:41:00,62.4,62.0,30.07,SSW,199,0.0,3.0,100,0.00,,,0.00,weatherlink.com 1.10,2013-01-03 11:41:00,
2013-01-03 06:56:00,62.4,62.0,30.07,SSW,199,1.0,3.0,100,0.00,,,0.00,weatherlink.com 1.10,2013-01-03 11:56:00,
2013-01-03 07:11:00,62.3,62.0,30.07,SSW,199,2.0,2.0,100,0.00,,,0.00,weatherlink.com 1.10,2013-01-03 12:11:00,
2013-01-03 07:26:00,61.8,62.0,30.08,SSW,199,1.0,4.0,100,0.00,,,0.00,weatherlink.com 1.10,2013-01-03 12:26:00,
2013-01-03 07:41:00,62.0,62.0,30.09,SSW,199,0.0,2.0,100,0.00,,,0.00,weatherlink.com 1.10,2013-01-03 12:41:00,
2013-01-03 07:56:00,62.3,62.0,30.09,SSW,199,0.0,2.0,100,0.00,,,0.00,weatherlink.com 1.10,2013-01-03 12:56:00,
2013-01-03 08:11:00,62.4,62.0,30.09,SSW,199,0.0,2.0,100,0.00,,,0.00,weatherlink.com 1.10,2013-01-03 13:11:00,
2013-01-03 08:26:00,62.5,63.0,30.10,West,269,1.0,3.0,100,0.00,,,0.00,weatherlink.com 1.10,2013-01-03 13:26:00,
2013-01-03 08:41:00,62.8,63.0,30.10,North,355,3.0,4.0,100,0.00,,,0.00,weatherlink.com 1.10,2013-01-03 13:41:00,
2013-01-03 08:56:00,62.5,63.0,30.11,North,350,3.0,4.0,100,0.00,,,0.00,weatherlink.com 1.10,2013-01-03 13:56:00,
2013-01-03 09:11:00,62.5,63.0,30.11,North,360,0.0,4.0,100,0.00,,,0.00,weatherlink.com 1.10,2013-01-03 14:11:00,
2013-01-03 09:26:00,63.3,63.0,30.11,ENE,66,2.0,3.0,100,0.00,,,0.00,weatherlink.com 1.10,2013-01-03 14:26:00,
2013-01-03 09:41:00,63.3,63.0,30.11,East,82,1.0,4.0,100,0.00,,,0.00,weatherlink.com 1.10,2013-01-03 14:41:00,
2013-01-03 09:56:00,63.9,64.0,30.11,ENE,61,3.0,5.0,100,0.00,,,0.00,weatherlink.com 1.10,2013-01-03 14:56:00,
2013-01-03 10:11:00,64.4,64.0,30.11,ESE,103,5.0,5.0,100,0.00,,,0.00,weatherlink.com 1.10,2013-01-03 15:11:00,
2013-01-03 10:26:00,64.4,64.0,30.12,ESE,117,0.0,3.0,100,0.00,,,0.00,weatherlink.com 1.10,2013-01-03 15:26:00,
2013-01-03 10:41:00,64.9,65.0,30.11,ESE,121,0.0,2.0,100,0.00,,,0.00,weatherlink.com 1.10,2013-01-03 15:41:00,
2013-01-03 10:56:00,65.0,65.0,30.11,ESE,121,2.0,2.0,100,0.00,,,0.00,weatherlink.com 1.10,2013-01-03 15:56:00,
2013-01-03 11:11:00,65.7,66.0,30.11,ESE,121,2.0,4.0,100,0.00,,,0.00,weatherlink.com 1.10,2013-01-03 16:11:00,
2013-01-03 11:26:00,65.8,66.0,30.10,SSW,202,2.0,5.0,100,0.00,,,0.00,weatherlink.com 1.10,2013-01-03 16:26:00,
2013-01-03 11:41:00,66.3,66.0,30.10,SE,138,2.0,5.0,100,0.00,,,0.00,weatherlink.com 1.10,2013-01-03 16:41:00,
2013-01-03 11:56:00,67.0,67.0,30.09,SE,142,3.0,4.0,100,0.00,,,0.00,weatherlink.com 1.10,2013-01-03 16:56:00,
2013-01-03 12:11:00,67.5,68.0,30.08,SSE,156,2.0,5.0,100,0.00,,,0.00,weatherlink.com 1.10,2013-01-03 17:11:00,
2013-01-03 12:26:00,69.2,69.0,30.07,ESE,120,2.0,7.0,100,0.00,,,0.00,weatherlink.com 1.10,2013-01-03 17:26:00,
2013-01-03 12:41:00,70.3,70.0,30.06,SSE,151,2.0,6.0,99,0.00,,,0.00,weatherlink.com 1.10,2013-01-03 17:41:00,
2013-01-03 12:56:00,72.0,69.0,30.05,South,170,2.0,6.0,91,0.00,,,0.00,weatherlink.com 1.10,2013-01-03 17:56:00,
2013-01-03 13:11:00,73.9,69.0,30.04,SE,126,5.0,6.0,83,0.00,,,0.00,weatherlink.com 1.10,2013-01-03 18:11:00,
2013-01-03 13:26:00,75.5,67.0,30.04,SSE,149,0.0,5.0,75,0.00,,,0.00,weatherlink.com 1.10,2013-01-03 18:26:00,
2013-01-03 13:41:00,75.3,66.0,30.04,SW,235,5.0,5.0,73,0.00,,,0.00,weatherlink.com 1.10,2013-01-03 18:41:00,
2013-01-03 13:56:00,74.9,65.0,30.04,SW,215,3.0,5.0,71,0.00,,,0.00,weatherlink.com 1.10,2013-01-03 18:56:00,
2013-01-03 14:11:00,75.4,65.0,30.03,SW,216,3.0,4.0,71,0.00,,,0.00,weatherlink.com 1.10,2013-01-03 19:11:00,
2013-01-03 14:57:00,76.4,66.0,30.03,WNW,292,3.0,4.0,70,0.00,,,0.00,weatherlink.com 1.10,2013-01-03 19:57:00,
2013-01-03 15:11:00,76.0,66.0,30.03,SW,229,0.0,4.0,70,0.00,,,0.00,weatherlink.com 1.10,2013-01-03 20:11:00,
2013-01-03 15:26:00,75.9,65.0,30.03,WSW,237,0.0,3.0,70,0.00,,,0.00,weatherlink.com 1.10,2013-01-03 20:26:00,
2013-01-03 15:56:00,73.8,68.0,30.04,NE,44,9.0,11.0,82,0.00,,,0.00,weatherlink.com 1.10,2013-01-03 20:56:00,
2013-01-03 16:11:00,73.3,68.0,30.05,NE,44,7.0,9.0,83,0.00,,,0.00,weatherlink.com 1.10,2013-01-03 21:11:00,
2013-01-03 16:26:00,72.7,68.0,30.05,NE,40,4.0,10.0,85,0.00,,,0.00,weatherlink.com 1.10,2013-01-03 21:26:00,
2013-01-03 16:56:00,72.3,68.0,30.06,NNE,32,5.0,9.0,87,0.00,,,0.00,weatherlink.com 1.10,2013-01-03 21:56:00,
2013-01-03 17:11:00,71.9,67.0,30.07,NE,34,7.0,9.0,85,0.00,,,0.00,weatherlink.com 1.10,2013-01-03 22:11:00,
2013-01-03 17:27:00,71.7,67.0,30.07,NE,34,5.0,7.0,86,0.00,,,0.00,weatherlink.com 1.10,2013-01-03 22:27:00,
2013-01-03 17:42:00,71.4,67.0,30.07,NE,34,7.0,8.0,87,0.00,,,0.00,weatherlink.com 1.10,2013-01-03 22:42:00,
2013-01-03 17:57:00,71.3,68.0,30.08,NNE,31,7.0,9.0,89,0.00,,,0.00,weatherlink.com 1.10,2013-01-03 22:57:00,
2013-01-03 18:12:00,70.8,68.0,30.09,NNE,20,8.0,10.0,91,0.00,,,0.00,weatherlink.com 1.10,2013-01-03 23:12:00,
2013-01-03 18:27:00,69.5,68.0,30.10,NE,45,6.0,11.0,94,0.01,,,0.01,weatherlink.com 1.10,2013-01-03 23:27:00,
2013-01-03 18:42:00,68.5,67.0,30.10,ENE,59,5.0,9.0,95,0.02,,,0.02,weatherlink.com 1.10,2013-01-03 23:42:00,
2013-01-03 18:57:00,68.1,67.0,30.11,ENE,57,5.0,12.0,96,0.02,,,0.02,weatherlink.com 1.10,2013-01-03 23:57:00,
2013-01-03 19:12:00,66.9,66.0,30.12,NNE,30,9.0,12.0,97,0.02,,,0.02,weatherlink.com 1.10,2013-01-04 00:12:00,
2013-01-03 19:27:00,66.3,66.0,30.13,NNE,27,8.0,13.0,97,0.02,,,0.03,weatherlink.com 1.10,2013-01-04 00:27:00,
2013-01-03 19:42:00,65.3,65.0,30.13,NE,38,9.0,15.0,98,0.01,,,0.03,weatherlink.com 1.10,2013-01-04 00:42:00,
2013-01-03 19:57:00,64.6,64.0,30.14,North,10,9.0,14.0,98,0.01,,,0.03,weatherlink.com 1.10,2013-01-04 00:57:00,
2013-01-03 20:12:00,64.2,64.0,30.14,NE,36,9.0,14.0,99,0.02,,,0.04,weatherlink.com 1.10,2013-01-04 01:12:00,
2013-01-03 20:27:00,62.9,63.0,30.15,NNE,12,11.0,16.0,99,0.01,,,0.04,weatherlink.com 1.10,2013-01-04 01:27:00,
2013-01-03 20:42:00,62.2,62.0,30.16,NE,37,12.0,17.0,99,0.01,,,0.04,weatherlink.com 1.10,2013-01-04 01:42:00,
2013-01-03 20:57:00,61.2,61.0,30.16,NE,34,13.0,18.0,99,0.01,,,0.04,weatherlink.com 1.10,2013-01-04 01:57:00,
2013-01-03 21:12:00,60.5,60.0,30.16,NE,46,6.0,15.0,99,0.00,,,0.04,weatherlink.com 1.10,2013-01-04 02:12:00,
2013-01-03 21:27:00,60.4,60.0,30.16,ENE,59,11.0,11.0,99,0.01,,,0.05,weatherlink.com 1.10,2013-01-04 02:27:00,
2013-01-03 21:42:00,60.2,60.0,30.17,NNE,32,9.0,13.0,99,0.02,,,0.06,weatherlink.com 1.10,2013-01-04 02:42:00,
2013-01-03 21:57:00,60.6,60.0,30.17,ENE,59,8.0,14.0,99,0.02,,,0.06,weatherlink.com 1.10,2013-01-04 02:57:00,
2013-01-03 22:12:00,60.3,60.0,30.17,NE,38,5.0,11.0,99,0.02,,,0.06,weatherlink.com 1.10,2013-01-04 03:12:00,
2013-01-03 22:27:00,60.4,60.0,30.17,ENE,69,7.0,10.0,99,0.01,,,0.06,weatherlink.com 1.10,2013-01-04 03:27:00,
2013-01-03 22:42:00,60.1,60.0,30.17,NE,36,9.0,11.0,100,0.00,,,0.06,weatherlink.com 1.10,2013-01-04 03:42:00,
2013-01-03 22:57:00,60.0,60.0,30.17,NNE,33,6.0,10.0,100,0.00,,,0.06,weatherlink.com 1.10,2013-01-04 03:57:00,
2013-01-03 23:12:00,59.8,60.0,30.17,NE,44,6.0,11.0,100,0.00,,,0.06,weatherlink.com 1.10,2013-01-04 04:12:00,
2013-01-03 23:27:00,59.6,60.0,30.17,NNE,30,10.0,12.0,100,0.00,,,0.06,weatherlink.com 1.10,2013-01-04 04:27:00,
2013-01-03 23:42:00,59.3,59.0,30.16,ENE,62,5.0,11.0,100,0.00,,,0.06,weatherlink.com 1.10,2013-01-04 04:42:00,
2013-01-03 23:57:00,59.2,59.0,30.16,ENE,57,8.0,10.0,100,0.00,,,0.06,weatherlink.com 1.10,2013-01-04 04:57:00,